User: anonymous   Login
Location: Cutler
(25.6150°N, 80.3110°W)
Time: 07:26:01
(UTC-04:00)
Language:

CUTE 1.7 + AOD 2 - Orbit

View from above orbital plane
View from above orbital plane
View from above satellite
View from above satellite

Ground track
Ground track

The orbit data is extracted from the following two-line orbital elements,

1 32785U 08021C   18263.79613342 +.00000194 +00000-0 +26638-4 0  9994
2 32785 097.5477 271.4113 0014690 082.5074 277.7812 14.88175442563328
Epoch (UTC): 20 September 2018 19:06:25
Eccentricity: 0.0014690
inclination: 97.5477°
perigee height: 593 km
apogee height: 614 km
right ascension of ascending node: 271.4113°
argument of perigee: 82.5074°
revolutions per day: 14.88175442
mean anomaly at epoch: 277.7812°
orbit number at epoch: 56332

The dashed part of the orbit path shows where the satellite is in the earth's shadow,  

DLR